GW4886 Weather Reports


time (UTC)temp
F
wind
direction
speed
knots
gust
knots
rain 1hr
in
rain 24hr
in
rain mn
in
humidity
%
barometer
mb
20260510104518 39 262 0.0 0.0 0.00 0.00 0.00 99 1016.6
20260510104014 38 262 0.0 0.0 0.00 0.00 0.00 99 1016.3
20260510103512 38 262 0.0 0.0 0.00 0.00 0.00 99 1016.2
20260510103008 39 262 0.0 0.0 0.00 0.00 0.00 99 1016.2
20260510102504 39 263 0.0 0.0 0.00 0.00 0.00 99 1016.2
20260510102000 39 263 0.0 0.0 0.00 0.00 0.00 99 1016.0
20260510101458 39 263 0.0 0.0 0.00 0.00 0.00 99 1015.8
20260510100956 39 263 0.0 0.0 0.00 0.00 0.00 99 1015.8
20260510100452 40 262 0.0 0.0 0.00 0.00 0.00 99 1015.9
20260510095948 40 262 0.0 0.0 0.00 0.00 0.00 99 1015.7
20260510095444 40 262 0.0 0.0 0.00 0.00 0.00 99 1015.8
20260510094943 41 278 0.0 0.9 0.00 0.00 0.00 99 1015.6
20260510094438 40 286 0.9 0.9 0.00 0.00 0.00 99 1015.6
20260510093934 39 327 0.0 0.0 0.00 0.00 0.00 99 1015.7
20260510093430 39 327 0.0 0.9 0.00 0.00 0.00 99 1015.5
20260510092927 40 328 0.9 0.9 0.00 0.00 0.00 99 1015.5
20260510092425 40 324 0.0 0.0 0.00 0.00 0.00 99 1015.5
20260510091924 39 324 0.0 0.0 0.00 0.00 0.00 99 1015.4
20260510091421 40 324 0.0 0.9 0.00 0.00 0.00 99 1015.3
20260510090918 40 324 0.9 0.9 0.00 0.00 0.00 99 1015.3
20260510090414 40 296 0.0 0.0 0.00 0.00 0.00 99 1015.3
20260510085911 41 296 0.0 0.0 0.00 0.00 0.00 99 1015.5
20260510085406 41 296 0.0 0.9 0.00 0.00 0.00 99 1015.4
20260510084901 40 296 0.0 0.0 0.00 0.00 0.00 99 1015.5
20260510084359 40 296 0.0 0.0 0.00 0.00 0.00 99 1015.1
20260510083855 40 296 0.0 0.0 0.00 0.00 0.00 99 1015.3
20260510083352 40 296 0.0 0.0 0.00 0.00 0.00 99 1015.1
20260510082847 40 296 0.0 0.0 0.00 0.00 0.00 99 1015.1
20260510082345 41 296 0.0 0.0 0.00 0.00 0.00 99 1015.0
20260510081844 41 296 0.0 0.0 0.00 0.00 0.00 99 1015.1
20260510081340 41 297 0.0 0.0 0.00 0.00 0.00 99 1015.1
20260510080837 40 297 0.0 0.0 0.00 0.00 0.00 99 1015.2
20260510080330 41 297 0.0 0.0 0.00 0.00 0.00 99 1015.2
20260510075828 40 297 0.0 0.0 0.00 0.00 0.00 99 1015.0
20260510075325 41 297 0.0 0.0 0.00 0.00 0.00 99 1015.0
20260510074822 40 297 0.0 0.0 0.00 0.00 0.00 99 1014.9
20260510074319 40 297 0.0 0.0 0.00 0.00 0.00 99 1015.0
20260510073815 40 297 0.0 0.0 0.00 0.00 0.00 99 1015.0
20260510073311 42 296 0.0 0.0 0.00 0.00 0.00 99 1015.0
20260510072807 42 295 0.0 0.0 0.00 0.00 0.00 99 1014.7
20260510072306 41 296 0.0 0.0 0.00 0.00 0.00 99 1014.9
20260510071800 42 296 0.0 0.0 0.00 0.00 0.00 99 1014.9
20260510071257 43 296 0.0 0.9 0.00 0.00 0.00 99 1014.9
20260510070756 42 296 0.0 0.0 0.00 0.00 0.00 99 1014.6
20260510070252 42 318 0.0 0.0 0.00 0.00 0.00 99 1014.7
20260510065752 41 318 0.0 0.0 0.00 0.00 0.00 99 1014.5
20260510065249 41 319 0.0 0.9 0.00 0.00 0.00 99 1014.6
20260510064745 42 314 0.0 0.9 0.00 0.00 0.00 99 1014.9
20260510064244 42 260 0.0 0.9 0.00 0.00 0.00 99 1014.6
20260510063739 41 290 0.0 0.9 0.00 0.00 0.00 99 1014.6
20260510063236 41 338 0.9 0.9 0.00 0.00 0.00 99 1014.5
20260510062733 42 299 0.0 0.9 0.00 0.00 0.00 99 1014.5
20260510062229 43 274 0.0 0.0 0.00 0.00 0.00 99 1014.6
20260510061724 43 274 0.0 0.0 0.00 0.00 0.00 99 1014.3
20260510061222 42 274 0.0 0.0 0.00 0.00 0.00 99 1014.9
20260510060718 42 263 0.9 0.9 0.00 0.00 0.00 99 1014.6
20260510060214 42 322 0.0 0.0 0.00 0.00 0.00 99 1014.6
20260510055711 42 328 1.7 1.7 0.00 0.00 0.00 99 1014.6
20260510055209 42 353 0.0 0.9 0.00 0.00 0.00 98 1014.5
20260510054704 44 258 0.0 0.0 0.00 0.00 0.00 98 1014.4
20260510054200 43 258 0.0 0.0 0.00 0.00 0.00 98 1014.4
20260510053700 44 306 0.0 0.0 0.00 0.00 0.00 97 1014.7
20260510053156 44 307 0.9 1.7 0.00 0.00 0.00 98 1014.6
20260510052652 45 247 0.0 1.7 0.00 0.00 0.00 98 1014.5
20260510052148 44 258 0.0 0.0 0.00 0.00 0.00 98 1014.6
20260510051644 44 259 0.0 0.9 0.00 0.00 0.00 98 1014.6
20260510051141 44 257 0.0 0.0 0.00 0.00 0.00 97 1014.9
20260510050638 44 258 0.0 1.7 0.00 0.00 0.00 97 1014.7
20260510050136 45 303 0.0 0.9 0.00 0.00 0.00 97 1014.9
20260510045632 44 301 1.7 1.7 0.00 0.00 0.00 97 1014.9
20260510045129 44 256 0.0 0.0 0.00 0.00 0.00 97 1015.0
20260510044625 44 256 0.0 0.0 0.00 0.00 0.00 96 1014.7
20260510044122 44 256 0.9 0.9 0.00 0.00 0.00 95 1014.7
20260510043618 44 256 0.0 0.0 0.00 0.00 0.00 93 1015.0
20260510043114 46 255 0.0 0.0 0.00 0.00 0.00 91 1015.0
20260510042613 47 255 0.9 1.7 0.00 0.00 0.00 92 1014.9
20260510042108 46 259 0.9 0.9 0.00 0.00 0.00 93 1015.0
20260510041605 46 280 0.0 0.9 0.00 0.00 0.00 93 1014.9
20260510041103 46 306 0.0 0.9 0.00 0.00 0.00 93 1015.0
20260510040559 46 306 0.9 1.7 0.00 0.00 0.00 94 1014.9
20260510040055 46 277 0.0 0.0 0.00 0.00 0.00 94 1015.1
20260510035552 46 277 0.0 0.0 0.00 0.00 0.00 94 1015.0
20260510035051 46 277 0.0 0.0 0.00 0.00 0.00 93 1014.9
20260510034550 46 277 0.0 0.0 0.00 0.00 0.00 92 1014.6
20260510034047 47 277 0.0 0.0 0.00 0.00 0.00 92 1014.9
20260510033542 47 277 0.0 0.0 0.00 0.00 0.00 91 1014.9
20260510033041 47 277 0.0 0.0 0.00 0.00 0.00 91 1014.6
20260510032537 47 277 0.0 0.0 0.00 0.00 0.00 90 1014.7
20260510032032 48 277 0.0 0.0 0.00 0.00 0.00 89 1014.7
20260510031527 48 277 0.0 0.0 0.00 0.00 0.00 88 1014.6
20260510031023 49 277 0.0 0.0 0.00 0.00 0.00 87 1014.6
20260510030519 48 277 0.0 0.0 0.00 0.00 0.00 88 1014.5
20260510030017 48 277 0.0 0.0 0.00 0.00 0.00 87 1014.5
20260510025513 49 277 0.0 0.0 0.00 0.00 0.00 85 1014.4
20260510025011 50 277 0.0 0.0 0.00 0.00 0.00 84 1014.5
20260510024508 51 276 0.9 0.9 0.00 0.00 0.00 83 1014.5
20260510024004 51 277 0.9 0.9 0.00 0.00 0.00 83 1014.4
20260510023500 51 277 0.0 0.9 0.00 0.00 0.00 81 1014.3
20260510022957 50 277 0.9 0.9 0.00 0.00 0.00 83 1014.4
20260510022456 50 278 0.0 0.0 0.00 0.00 0.00 83 1014.2
20260510021955 51 278 0.0 0.0 0.00 0.00 0.00 82 1013.9
20260510021453 52 277 0.0 0.0 0.00 0.00 0.00 79 1014.0
20260510020950 53 278 0.0 0.9 0.00 0.00 0.00 76 1013.9
20260510020444 54 275 1.7 2.6 0.00 0.00 0.00 72 1013.8
20260510015940 55 265 1.7 2.6 0.00 0.00 0.00 70 1013.9
20260510015436 55 274 1.7 2.6 0.00 0.00 0.00 69 1013.7
20260510014931 55 274 3.5 3.5 0.00 0.00 0.00 70 1013.6
20260510014429 55 275 2.6 3.5 0.00 0.00 0.00 69 1013.6
20260510013926 56 272 2.6 2.6 0.00 0.00 0.00 68 1013.4
20260510013420 56 269 2.6 2.6 0.00 0.00 0.00 67 1013.1
20260510012916 56 274 2.6 2.6 0.00 0.00 0.00 67 1013.0
20260510012411 55 270 2.6 3.5 0.00 0.00 0.00 69 1013.2
20260510011906 56 272 2.6 3.5 0.00 0.00 0.00 66 1012.9
20260510011401 55 264 2.6 3.5 0.00 0.00 0.00 69 1013.0
20260510010858 56 260 3.5 3.5 0.00 0.00 0.00 70 1013.0
20260510010355 56 275 1.7 2.6 0.00 0.00 0.00 66 1012.9
20260510005852 55 261 1.7 2.6 0.00 0.00 0.00 68 1012.9
20260510005348 56 268 2.6 2.6 0.00 0.00 0.00 69 1012.7
20260510004846 56 258 2.6 2.6 0.00 0.00 0.00 66 1012.5
20260510004343 57 271 1.7 2.6 0.00 0.00 0.00 66 1012.9
20260510003841 57 276 1.7 2.6 0.00 0.00 0.00 64 1012.7
20260510003338 58 269 0.9 2.6 0.00 0.00 0.00 64 1012.5
20260510002836 57 282 1.7 2.6 0.00 0.00 0.00 65 1012.7
20260510002333 57 255 1.7 5.2 0.00 0.00 0.00 65 1012.6
20260510001830 58 268 2.6 2.6 0.00 0.00 0.00 66 1012.3
20260510001328 58 263 1.7 2.6 0.00 0.00 0.00 62 1012.3
20260510000824 59 259 2.6 2.6 0.00 0.00 0.00 62 1012.2
20260510000322 59 279 1.7 2.6 0.00 0.00 0.00 61 1012.2
20260509235818 60 273 1.7 1.7 0.00 0.00 0.00 60 1012.1
20260509235315 60 265 3.5 3.5 0.00 0.00 0.00 58 1012.1
20260509234811 60 253 0.9 1.7 0.00 0.00 0.00 62 1011.9
20260509234307 61 277 1.7 2.6 0.00 0.00 0.00 57 1011.8
20260509233806 61 249 1.7 5.2 0.00 0.00 0.00 54 1011.9
20260509233303 62 279 1.7 2.6 0.00 0.00 0.00 53 1011.8
20260509232759 62 268 0.9 1.7 0.00 0.00 0.00 53 1011.8
20260509232257 62 278 1.7 1.7 0.00 0.00 0.00 54 1011.6
20260509231753 63 303 0.9 1.7 0.00 0.00 0.00 59 1011.9
20260509231250 64 237 0.9 3.5 0.00 0.00 0.00 59 1011.5
20260509230747 67 250 0.9 1.7 0.00 0.00 0.00 44 1011.9
20260509230244 66 229 0.9 1.7 0.00 0.00 0.00 46 1011.9
20260509225739 66 246 1.7 3.5 0.00 0.00 0.00 50 1012.0
20260509225236 66 305 0.0 0.9 0.00 0.00 0.00 46 1011.9
20260509224731 66 313 0.0 0.9 0.00 0.00 0.00 56 1012.0
20260509224229 65 356 1.7 2.6 0.00 0.00 0.00 50 1012.0
20260509223725 66 301 3.5 3.5 0.00 0.00 0.00 47 1012.1
20260509223222 66 53 2.6 5.2 0.00 0.00 0.00 46 1012.0
20260509222719 66 273 0.9 5.2 0.00 0.00 0.00 51 1012.1
20260509222214 66 308 0.0 0.9 0.00 0.00 0.00 51 1012.0
20260509221711 65 278 0.0 0.9 0.00 0.00 0.00 50 1012.1
20260509221207 65 306 1.7 1.7 0.00 0.00 0.00 49 1011.9
20260509220703 65 210 0.9 2.6 0.00 0.00 0.00 45 1012.0
20260509220159 65 257 4.3 6.1 0.00 0.00 0.00 44 1011.6
20260509215655 65 300 0.9 5.2 0.00 0.00 0.00 51 1011.9
20260509215152 66 247 2.6 5.2 0.00 0.00 0.00 43 1011.8
20260509214649 66 339 4.3 7.8 0.00 0.00 0.00 47 1011.9
20260509214146 66 1 2.6 2.6 0.00 0.00 0.00 43 1012.0
20260509213643 66 279 1.7 1.7 0.00 0.00 0.00 46 1011.8
20260509213138 66 23 0.9 2.6 0.00 0.00 0.00 40 1011.6
20260509212636 66 295 1.7 2.6 0.00 0.00 0.00 42 1011.6
20260509212133 67 258 3.5 6.1 0.00 0.00 0.00 41 1011.9
20260509211629 68 250 2.6 5.2 0.00 0.00 0.00 41 1011.5
20260509211126 68 309 1.7 3.5 0.00 0.00 0.00 42 1011.6
20260509210622 67 28 2.6 2.6 0.00 0.00 0.00 42 1011.5
20260509210120 66 306 2.6 7.0 0.00 0.00 0.00 46 1011.4
20260509205614 66 317 4.3 8.7 0.00 0.00 0.00 43 1011.4
20260509205109 66 228 0.0 2.6 0.00 0.00 0.00 42 1011.1
20260509204605 67 130 3.5 5.2 0.00 0.00 0.00 42 1011.2
20260509204102 67 24 2.6 3.5 0.00 0.00 0.00 48 1011.1
20260509203558 67 226 0.9 2.6 0.00 0.00 0.00 39 1010.9
20260509203056 67 34 5.2 6.1 0.00 0.00 0.00 42 1011.2
20260509202550 68 257 0.0 6.1 0.00 0.00 0.00 44 1011.1
20260509202046 69 283 1.7 7.8 0.00 0.00 0.00 40 1011.0
20260509201541 70 215 1.7 7.0 0.00 0.00 0.00 44 1010.8
20260509201040 67 121 1.7 2.6 0.00 0.00 0.00 52 1010.9
20260509200538 66 268 1.7 3.5 0.00 0.00 0.00 45 1010.9
20260509200036 66 159 3.5 5.2 0.00 0.00 0.00 46 1010.9
20260509195532 66 283 1.7 3.5 0.00 0.00 0.00 51 1010.9
20260509195031 67 193 5.2 7.8 0.00 0.00 0.00 46 1010.9
20260509194526 67 188 2.6 3.5 0.00 0.00 0.00 49 1010.8
20260509194024 67 251 1.7 3.5 0.00 0.00 0.00 49 1010.9
20260509193524 67 6 0.0 3.5 0.00 0.00 0.00 47 1010.9
20260509193022 67 313 0.9 2.6 0.00 0.00 0.00 48 1010.9
20260509192517 67 277 2.6 5.2 0.00 0.00 0.00 53 1011.0
20260509192013 66 324 3.5 6.1 0.00 0.00 0.00 50 1011.0
20260509191507 66 324 1.7 5.2 0.00 0.00 0.00 50 1011.0
20260509191003 66 235 3.5 5.2 0.00 0.00 0.00 54 1010.7
20260509190500 66 358 3.5 6.1 0.00 0.00 0.00 50 1011.0
20260509185958 66 224 5.2 6.1 0.00 0.00 0.00 48 1011.2
20260509185455 67 146 3.5 5.2 0.00 0.00 0.00 49 1011.4
20260509184952 66 313 1.7 3.5 0.00 0.00 0.00 47 1011.2
20260509184451 65 268 0.9 3.5 0.00 0.00 0.00 47 1011.1
20260509183947 66 162 0.9 2.6 0.00 0.00 0.00 49 1011.2
20260509183446 66 241 2.6 2.6 0.00 0.00 0.00 48 1011.2
20260509182943 65 269 3.5 9.6 0.00 0.00 0.00 52 1011.1
20260509182440 66 123 2.6 5.2 0.00 0.00 0.00 48 1011.3
20260509181937 66 150 3.5 7.0 0.00 0.00 0.00 48 1011.4
20260509181435 66 214 2.6 2.6 0.00 0.00 0.00 49 1011.3
20260509180932 66 176 1.7 6.1 0.00 0.00 0.00 50 1011.4
20260509180427 67 273 3.5 3.5 0.00 0.00 0.00 52 1011.3
20260509175925 64 283 2.6 6.1 0.00 0.00 0.00 51 1011.5
20260509175421 67 299 2.6 5.2 0.00 0.00 0.00 55 1011.4
20260509174917 65 232 0.9 3.5 0.00 0.00 0.00 52 1011.4
20260509174413 65 195 0.9 5.2 0.00 0.00 0.00 51 1011.6
20260509173909 65 185 1.7 7.8 0.00 0.00 0.00 50 1011.8
20260509173403 66 166 3.5 5.2 0.00 0.00 0.00 51 1011.4
20260509172900 65 146 0.9 3.5 0.00 0.00 0.00 52 1011.5
20260509172357 67 275 5.2 6.1 0.00 0.00 0.00 48 1011.5
20260509171853 65 149 1.7 3.5 0.00 0.00 0.00 51 1011.6
20260509171349 64 301 2.6 6.1 0.00 0.00 0.00 57 1011.8
20260509170846 64 238 1.7 11.3 0.00 0.00 0.00 57 1012.1
20260509170341 64 158 3.5 5.2 0.00 0.00 0.00 52 1011.9
20260509165836 64 248 0.9 7.0 0.00 0.00 0.00 51 1012.2
20260509165330 63 215 1.7 2.6 0.00 0.00 0.00 55 1012.1
20260509164827 63 179 3.5 5.2 0.00 0.00 0.00 52 1012.3
20260509164323 63 246 0.9 2.6 0.00 0.00 0.00 52 1012.2
20260509163819 63 157 0.9 3.5 0.00 0.00 0.00 54 1012.5
20260509163316 62 340 0.0 1.7 0.00 0.00 0.00 56 1012.3
20260509162816 64 279 3.5 7.0 0.00 0.00 0.00 55 1012.1
20260509162314 63 261 0.9 3.5 0.00 0.00 0.00 61 1011.9
20260509161811 62 132 5.2 6.1 0.00 0.00 0.00 59 1012.0
20260509161307 62 162 3.5 5.2 0.00 0.00 0.00 60 1012.0
20260509160802 62 186 4.3 7.0 0.00 0.00 0.00 60 1011.9
20260509160259 62 200 1.7 3.5 0.00 0.00 0.00 60 1011.8
20260509155754 62 210 2.6 7.0 0.00 0.00 0.00 61 1011.9
20260509155251 62 279 0.0 1.7 0.00 0.00 0.00 61 1011.8
20260509154747 61 158 1.7 6.1 0.00 0.00 0.00 62 1011.9
20260509154244 61 180 1.7 6.1 0.00 0.00 0.00 62 1012.1
20260509153741 61 191 3.5 6.1 0.00 0.00 0.00 61 1012.1
20260509153237 62 178 2.6 6.1 0.00 0.00 0.00 59 1012.1
20260509152734 62 157 2.6 7.0 0.00 0.00 0.00 63 1011.8
20260509152230 62 129 3.5 5.2 0.00 0.00 0.00 58 1012.2
20260509151727 62 166 2.6 5.2 0.00 0.00 0.00 62 1012.0
20260509151224 62 256 1.7 2.6 0.00 0.00 0.00 61 1012.0
20260509150722 63 266 3.5 5.2 0.00 0.00 0.00 58 1012.0
20260509150220 61 172 2.6 3.5 0.00 0.00 0.00 63 1012.1
20260509145716 62 179 5.2 7.0 0.00 0.00 0.00 61 1012.0
20260509145211 61 144 3.5 3.5 0.00 0.00 0.00 64 1012.0
20260509144708 62 327 0.9 2.6 0.00 0.00 0.00 61 1012.3
20260509144205 62 180 2.6 2.6 0.00 0.00 0.00 65 1012.1
20260509143702 61 158 2.6 6.1 0.00 0.00 0.00 61 1012.1
20260509143159 61 158 2.6 6.1 0.00 0.00 0.00 63 1012.1
20260509142655 61 120 2.6 6.1 0.00 0.00 0.00 65 1012.1
20260509142152 60 305 0.9 3.5 0.00 0.00 0.00 71 1012.0
20260509141647 58 140 5.2 7.8 0.00 0.00 0.00 67 1012.2
20260509141144 60 127 3.5 5.2 0.00 0.00 0.00 66 1012.3
20260509140641 60 164 0.9 2.6 0.00 0.00 0.00 67 1012.2
20260509140139 58 229 0.9 1.7 0.00 0.00 0.00 69 1012.0
20260509135636 57 233 2.6 6.1 0.00 0.00 0.00 67 1012.2
20260509135134 55 121 1.7 2.6 0.00 0.00 0.00 75 1012.2
20260509134630 53 303 0.0 1.7 0.00 0.00 0.00 80 1012.1
20260509134128 51 293 0.0 0.9 0.00 0.00 0.00 81 1012.2
20260509133625 51 60 0.0 0.9 0.00 0.00 0.00 81 1011.8
20260509133122 51 39 0.9 1.7 0.00 0.00 0.00 80 1012.1
20260509132620 49 39 0.9 0.9 0.00 0.00 0.00 81 1012.5
20260509132119 50 59 1.7 1.7 0.00 0.00 0.00 82 1012.5
20260509131614 49 27 0.0 0.0 0.00 0.00 0.00 84 1012.7
20260509131112 48 27 0.9 0.9 0.00 0.00 0.00 84 1012.8
20260509130607 47 26 0.0 0.9 0.00 0.00 0.00 84 1013.1
20260509130104 47 22 0.0 0.9 0.00 0.00 0.00 87 1013.0
20260509125600 47 19 0.0 0.0 0.00 0.00 0.00 88 1013.0
20260509125057 46 5 0.0 0.9 0.00 0.00 0.00 86 1012.8
20260509124553 45 348 0.0 0.0 0.00 0.00 0.00 88 1013.2
20260509124051 45 348 0.0 0.9 0.00 0.00 0.00 88 1013.1
20260509123549 44 27 0.0 0.0 0.00 0.00 0.00 88 1013.2
20260509123045 44 28 0.0 0.0 0.00 0.00 0.00 88 1013.1
20260509122541 43 28 0.9 0.9 0.00 0.00 0.00 91 1013.1
20260509122038 43 29 0.0 0.0 0.00 0.00 0.00 92 1013.4
20260509121535 43 29 0.0 0.9 0.00 0.00 0.00 94 1013.4
20260509121032 42 338 0.0 0.0 0.00 0.00 0.00 94 1013.2
20260509120531 42 338 0.0 0.0 0.00 0.00 0.00 97 1013.4
20260509120029 42 338 0.0 0.0 0.00 0.00 0.00 98 1013.6
20260509115525 41 338 0.0 0.0 0.00 0.00 0.00 99 1013.5
20260509115023 41 338 0.0 0.0 0.00 0.00 0.00 99 1013.5
20260509114521 41 338 0.0 0.0 0.00 0.00 0.00 99 1013.4
20260509114020 40 338 0.0 0.0 0.00 0.00 0.00 99 1013.1
20260509113518 40 339 0.0 0.9 0.00 0.00 0.00 99 1013.1
20260509113015 40 338 0.0 0.0 0.00 0.00 0.00 99 1013.0
20260509112511 40 338 0.0 0.0 0.00 0.00 0.00 99 1013.1
20260509112008 39 338 0.0 0.0 0.00 0.00 0.00 99 1013.1
20260509111505 38 338 0.0 0.0 0.00 0.00 0.00 99 1013.1
20260509111003 38 338 0.0 0.0 0.00 0.00 0.00 99 1013.1
20260509110459 38 338 0.0 0.0 0.00 0.00 0.00 99 1012.9
20260509105956 38 338 0.0 0.0 0.00 0.00 0.00 99 1013.0
20260509105455 39 338 0.0 0.0 0.00 0.00 0.00 99 1013.0
20260509104951 38 337 0.0 0.0 0.00 0.00 0.00 99 1013.1